This is the latest recevied weather packets stored in our database for station/object APPOWX. If no packets are shown the sender has not sent any weather packets the latest 10 day(s).
| Time | Temp. | Humidity | Pressure | Rain* | Wind** | Luminosity | Snow |
|---|---|---|---|---|---|---|---|
| 1777136901 | 25° C | 57% | 1011.6 hPa | 0 mm | - | - | - |
| 1777136840 | 25.56° C | 57% | 1011.5 hPa | 0 mm | - | - | - |
| 1777136780 | 25° C | 56% | 1011.7 hPa | 0 mm | - | - | - |
| 1777136720 | 25° C | 57% | 1011.6 hPa | 0 mm | - | - | - |
| 1777136660 | 25° C | 60% | 1011.7 hPa | 0 mm | - | - | - |
| 1777136600 | 25° C | 57% | 1011.7 hPa | 0 mm | - | - | - |
| 1777136539 | 25° C | 56% | 1011.8 hPa | 0 mm | - | - | - |
| 1777136479 | 24.44° C | 56% | 1011.7 hPa | 0 mm | - | - | - |
| 1777136419 | 24.44° C | 55% | 1011.5 hPa | 0 mm | - | - | - |
| 1777136359 | 24.44° C | 57% | 1011.6 hPa | 0 mm | - | - | - |
| 1777136299 | 24.44° C | 57% | 1011.8 hPa | 0 mm | - | - | - |
| 1777136239 | 24.44° C | 56% | 1011.7 hPa | 0 mm | - | - | - |
| 1777136178 | 25° C | 60% | 1011.7 hPa | 0 mm | - | - | - |
| 1777136119 | 25° C | 57% | 1011.6 hPa | 0 mm | - | - | - |
| 1777136059 | 25° C | 56% | 1011.6 hPa | 0 mm | - | - | - |
| 1777135998 | 25° C | 56% | 1011.7 hPa | 0 mm | - | - | - |
| 1777135938 | 25° C | 56% | 1011.7 hPa | 0 mm | - | - | - |
| 1777135878 | 25° C | 57% | 1011.8 hPa | 0 mm | - | - | - |
| 1777135819 | 25° C | 58% | 1011.7 hPa | 0 mm | - | - | - |
| 1777135758 | 25° C | 56% | 1011.8 hPa | 0 mm | - | - | - |
| 1777135699 | 25° C | 55% | 1011.8 hPa | 0 mm | - | - | - |
| 1777135638 | 25° C | 56% | 1011.8 hPa | 0 mm | - | - | - |
| 1777135578 | 25° C | 57% | 1011.9 hPa | 0 mm | - | - | - |
| 1777135518 | 25° C | 56% | 1011.9 hPa | 0 mm | - | - | - |
| 1777135458 | 24.44° C | 59% | 1012 hPa | 0 mm | - | - | - |
* Rain latest hour (hover to see other rain measurements)
** Current wind speed in m/s (hover to see current wind gust speed)